Location: Castro Valley
(37.6940°N, 122.0850°W)
Time: 10:02:40
(UTC-07:00)

Amateur Radio Satellites - All Passes

Search period start: 25 September 2017 09:32
Search period end: 26 September 2017 09:32
Location: Castro Valley, 37.6940°N, 122.0850°W

Satellite Date Start Highest point End Downlink Frequencies (MHz)
Time Altitude Azimuth
HO-68 25 Sep 09:35:44 09:42:08 36° 295° (WNW) 09:48:31 435.675
UNISAT 6 25 Sep 09:47:58 09:52:01 40° 72° (ENE) 09:56:11 437.425
CUBEBUG 2 25 Sep 09:53:55 09:57:11 19° 293° (WNW) 10:00:27 437.445
UWE-3 25 Sep 09:56:10 10:00:08 28° 290° (WNW) 10:04:06 435.000/436.395/437.385
DELFI C3 25 Sep 10:00:50 10:03:53 22° 95° (E) 10:06:56 145.870
EO-88 25 Sep 10:04:06 10:05:20 11° 92° (E) 10:06:34 145.990 - 145.960
PRISM 25 Sep 10:10:18 10:14:03 36° 72° (ENE) 10:17:49 437.425
TIGRISAT 25 Sep 10:10:49 10:15:06 68° 76° (ENE) 10:19:32 435.000
AAUSAT CUBESAT 2 25 Sep 10:26:32 10:28:25 13° 294° (WNW) 10:30:20 437.432
Oscar 11 25 Sep 10:32:04 10:35:54 31° 289° (WNW) 10:39:42 .
AO-73 25 Sep 10:35:42 10:39:11 22° 292° (WNW) 10:42:38 145.935
FO-29 25 Sep 10:36:54 10:41:22 23° 264° (W) 10:45:36 435.910
Max Valier Satellite 25 Sep 10:39:23 10:43:01 48° 99° (E) 10:46:38 145.860
ZACube-1 25 Sep 10:40:06 10:43:11 18° 293° (WNW) 10:46:15 437.345
NANOSAT C BR1 25 Sep 11:07:23 11:08:45 11° 64° (ENE) 11:10:05 145.865
AIST 2D 25 Sep 11:10:18 11:13:29 32° 73° (ENE) 11:16:40 435.315
ESTCUBE 1 25 Sep 11:24:23 11:25:25 11° 91° (E) 11:26:26 437.505/2401.250
UNISAT 6 25 Sep 11:26:16 11:28:55 16° 268° (W) 11:31:36 437.425
RS-15 25 Sep 11:27:55 11:35:58 19° 16° (NNE) 11:43:47 29.354- 29.394
DUCHIFAT 1 25 Sep 11:32:49 11:35:50 20° 68° (ENE) 11:38:52 145.980
DELFI C3 25 Sep 11:35:25 11:38:33 23° 290° (WNW) 11:41:40 145.870
EO-88 25 Sep 11:35:44 11:39:08 37° 287° (WNW) 11:42:31 145.990 - 145.960
M-CUBED/EXP-1 PRIME 25 Sep 11:37:43 11:39:12 12° 62° (ENE) 11:40:39 437.505
NO-84 25 Sep 11:38:45 11:41:49 21° 126° (SE) 11:44:43 435.350 FM
PRISM 25 Sep 11:47:00 11:49:26 15° 266° (W) 11:51:51 437.425
POLYITAN 1 25 Sep 11:48:40 11:52:34 38° 72° (ENE) 11:56:30 437.675
EO-79 25 Sep 11:52:17 11:56:15 42° 73° (ENE) 12:00:15 145.935-145.965
O/OREOS (USA 219) 25 Sep 11:54:48 11:59:02 35° 64° (ENE) 12:03:13 437.305
QB50P2 25 Sep 12:06:24 12:10:35 71° 75° (ENE) 12:14:49 145.880/145.840
Max Valier Satellite 25 Sep 12:15:53 12:16:21 10° 295° (WNW) 12:16:50 145.860
LO-87 25 Sep 12:25:07 12:28:44 81° 283° (WNW) 12:32:21 145.935 - 145.965
YUBILEINY 25 Sep 12:28:05 12:36:40 66° 92° (E) 12:45:14 435.215
NANOSAT C BR1 25 Sep 12:39:48 12:43:54 57° 260° (W) 12:48:04 145.865
AIST 2D 25 Sep 12:45:07 12:46:45 13° 267° (W) 12:48:23 435.315
ESTCUBE 1 25 Sep 12:58:09 13:02:35 62° 286° (WNW) 13:06:59 437.505/2401.250
SPROUT 25 Sep 13:01:22 13:05:15 32° 98° (E) 13:09:07 437.525
DUCHIFAT 1 25 Sep 13:07:34 13:11:16 30° 263° (W) 13:15:00 145.980
M-CUBED/EXP-1 PRIME 25 Sep 13:08:59 13:13:13 58° 254° (WSW) 13:17:11 437.505
Oscar 19 25 Sep 13:14:58 13:19:43 37° 70° (ENE) 13:24:28 437.125/150
NO-84 25 Sep 13:15:18 13:19:03 41° 319° (NW) 13:22:32 435.350 FM
Gurwin Techsat 1B 25 Sep 13:17:09 13:21:31 27° 67° (ENE) 13:25:55 435.225
VELOX 1 25 Sep 13:18:02 13:22:04 35° 98° (E) 13:26:06 145.980
POLYITAN 1 25 Sep 13:25:56 13:28:29 16° 267° (W) 13:31:02 437.675
EO-79 25 Sep 13:29:58 13:32:12 14° 268° (W) 13:34:26 145.935-145.965
BUGSAT 1 25 Sep 13:34:03 13:38:00 60° 259° (W) 13:42:02 437.445
O/OREOS (USA 219) 25 Sep 13:34:46 13:38:09 20° 259° (W) 13:41:33 437.305
RS-15 25 Sep 13:41:12 13:52:41 47° 47° (NE) 14:03:32 29.354- 29.394
AO-7 25 Sep 13:42:41 13:47:04 16° 50° (NE) 13:51:26 .
PCSat 25 Sep 13:43:40 13:48:01 25° 107° (ESE) 13:52:23 145.827
SO-50 25 Sep 13:53:57 13:58:26 76° 118° (ESE) 14:02:55 436.795
UKube-1 25 Sep 14:09:14 14:12:27 20° 95° (E) 14:15:39 .
DX 1 25 Sep 14:19:56 14:24:05 43° 99° (E) 14:28:12 434.975-435.025
YUBILEINY 25 Sep 14:27:18 14:34:05 25° 291° (WNW) 14:40:54 435.215
ITAMSAT 1 25 Sep 14:28:00 14:29:41 12° 60° (ENE) 14:31:22 435.822/435.867
SPROUT 25 Sep 14:37:48 14:40:54 20° 292° (WNW) 14:43:59 437.525
Oscar 19 25 Sep 14:54:55 14:59:04 24° 265° (W) 15:03:15 437.125/150
VELOX 1 25 Sep 14:55:10 14:58:15 19° 293° (WNW) 15:01:19 145.980
Gurwin Techsat 1B 25 Sep 14:56:27 15:01:16 35° 262° (W) 15:06:08 435.225
50 SAT 25 Sep 14:56:34 14:59:36 34° 287° (WNW) 15:02:38 437.505
ITUPSAT 1 25 Sep 15:15:52 15:18:02 13° 92° (E) 15:20:11 437.325
PCSat 25 Sep 15:26:03 15:31:09 41° 304° (WNW) 15:36:16 145.827
AO-7 25 Sep 15:30:08 15:38:25 73° 70° (ENE) 15:46:42 .
SO-50 25 Sep 15:37:07 15:39:24 14° 317° (NW) 15:41:41 436.795
UKube-1 25 Sep 15:44:41 15:48:28 31° 290° (WNW) 15:52:15 .
BEESAT 25 Sep 15:49:18 15:53:32 30° 97° (E) 15:57:44 436.000
RS-15 25 Sep 15:54:01 16:05:15 53° 250° (WSW) 16:15:55 29.354- 29.394
DX 1 25 Sep 15:57:19 15:59:52 16° 295° (WNW) 16:02:26 434.975-435.025
MOZHAYETS 4 25 Sep 16:01:03 16:05:28 42° 98° (E) 16:09:49
ITAMSAT 1 25 Sep 16:03:14 16:08:24 84° 256° (WSW) 16:13:36 435.822/435.867
CUBESAT XI-V 25 Sep 16:34:09 16:37:26 19° 94° (E) 16:40:41 437.345
ITUPSAT 1 25 Sep 16:51:27 16:56:12 60° 286° (WNW) 17:00:55 437.325
DOVE 4 25 Sep 16:58:51 17:02:36 28° 71° (ENE) 17:06:14 437.250
AO-7 25 Sep 17:25:44 17:31:48 22° 266° (W) 17:37:53 .
BEESAT 25 Sep 17:27:13 17:31:08 26° 292° (WNW) 17:35:03 436.000
MOZHAYETS 4 25 Sep 17:39:09 17:42:15 18° 294° (WNW) 17:45:21
KKS-1 25 Sep 17:41:27 17:45:28 33° 98° (E) 17:49:28 437.445
XW-2D 25 Sep 17:54:31 17:57:53 30° 72° (ENE) 18:01:16 145.860 - 145.880
STARS 25 Sep 17:59:44 18:03:02 20° 95° (E) 18:06:20 437.465
XW-2F 25 Sep 18:04:50 18:08:22 36° 73° (ENE) 18:11:55 145.980 - 146.000
XW-2B 25 Sep 18:06:40 18:10:17 40° 74° (ENE) 18:13:55 145.730 - 145.750
CUTE-I 25 Sep 18:07:57 18:12:55 43° 71° (ENE) 18:17:54 437.470
CUBESAT XI-V 25 Sep 18:10:39 18:14:54 37° 289° (WNW) 18:19:06 437.345
HO-68 25 Sep 18:15:23 18:21:01 26° 61° (ENE) 18:26:40 435.675
NUDT-PHONESAT 25 Sep 18:20:14 18:23:48 42° 74° (ENE) 18:27:22 437.300
CUTE 1.7 + AOD 2 25 Sep 18:21:18 18:23:08 13° 65° (ENE) 18:24:59 437.475
XW-2C 25 Sep 18:27:54 18:31:45 81° 74° (ENE) 18:35:36 145.795 - 145.815
Tancredo 1 25 Sep 18:29:30 18:32:05 50° 137° (SE) 18:34:42 437.200
DOVE 4 25 Sep 18:36:54 18:40:16 21° 264° (W) 18:43:33 437.250
LilacSat-2 25 Sep 18:43:07 18:46:55 58° 260° (W) 18:50:46 437.200
KAITUO 1B 25 Sep 18:52:21 18:56:07 66° 259° (W) 18:59:55 145.475/437.950
nSIGHT-1 25 Sep 18:57:58 18:59:38 13° 128° (SE) 19:01:18 .
JUGNU 25 Sep 19:07:27 19:09:57 13° 175° (S) 19:12:26 437.505
BEESAT 3 25 Sep 19:07:35 19:11:24 47° 116° (ESE) 19:15:17 437.485
CUBEBUG 2 25 Sep 19:13:01 19:16:33 26° 69° (ENE) 19:20:13 437.445
UWE-3 25 Sep 19:15:50 19:18:33 17° 66° (ENE) 19:21:20 435.000/436.395/437.385
KKS-1 25 Sep 19:18:28 19:21:47 21° 293° (WNW) 19:25:07 437.445
AO-85 25 Sep 19:21:14 19:23:55 18° 111° (ESE) 19:26:36 145.980
BEESAT 2 25 Sep 19:21:40 19:24:31 19° 111° (ESE) 19:27:24 435.950
SEEDS 25 Sep 19:21:52 19:25:45 37° 73° (ENE) 19:29:39 437.485
XW-2D 25 Sep 19:29:38 19:32:05 16° 267° (W) 19:34:33 145.860 - 145.880
XW-2A 25 Sep 19:31:11 19:34:06 27° 72° (ENE) 19:37:04 145.665 - 145.685
STARS 25 Sep 19:35:28 19:39:23 32° 290° (WNW) 19:43:18 437.465
AAUSAT CUBESAT 2 25 Sep 19:37:51 19:41:12 24° 70° (ENE) 19:44:33 437.432
XW-2F 25 Sep 19:40:43 19:42:35 13° 268° (W) 19:44:29 145.980 - 146.000
XW-2B 25 Sep 19:43:07 19:44:38 12° 268° (W) 19:46:08 145.730 - 145.750
CUTE-I 25 Sep 19:49:06 19:53:06 22° 266° (W) 19:57:07 437.470
NO-84 25 Sep 19:50:32 19:53:27 43° 42° (NE) 19:56:12 435.350 FM
Oscar 11 25 Sep 19:50:38 19:52:41 13° 65° (ENE) 19:54:46 .
AO-73 25 Sep 19:53:04 19:56:17 20° 68° (ENE) 19:59:33 145.935
CUTE 1.7 + AOD 2 25 Sep 19:54:17 19:58:28 53° 260° (W) 20:02:41 437.475
NUDT-PHONESAT 25 Sep 19:56:51 19:57:51 11° 268° (W) 19:58:51 437.300
ZACube-1 25 Sep 19:57:00 20:00:34 25° 69° (ENE) 20:04:12 437.345
ISS 25 Sep 19:57:42 20:00:54 57° 137° (SE) 20:04:08 437.550
HO-68 25 Sep 20:01:14 20:08:14 58° 258° (WSW) 20:15:17 435.675
Tancredo 1 25 Sep 20:05:08 20:06:43 14° 334° (NNW) 20:08:18 437.200
nSIGHT-1 25 Sep 20:32:29 20:35:38 51° 324° (NW) 20:38:48 .
STRAND 1 25 Sep 20:37:26 20:42:36 79° 103° (ESE) 20:47:46 437.568
BEESAT 3 25 Sep 20:46:40 20:49:13 16° 313° (NW) 20:51:46 437.485
DELFI C3 25 Sep 20:46:42 20:47:19 10° 65° (ENE) 20:47:56 145.870
CUBEBUG 2 25 Sep 20:49:40 20:53:06 24° 266° (W) 20:56:39 437.445
UWE-3 25 Sep 20:50:34 20:54:37 40° 262° (W) 20:58:49 435.000/436.395/437.385
JUGNU 25 Sep 20:55:43 20:58:05 12° 186° (S) 21:00:28 437.505
BEESAT 2 25 Sep 20:58:21 21:02:00 33° 306° (NW) 21:05:42 435.950
SEEDS 25 Sep 20:58:51 21:01:32 16° 267° (W) 21:04:14 437.485
AO-85 25 Sep 21:00:32 21:04:02 31° 307° (NW) 21:07:34 145.980
XW-2A 25 Sep 21:05:04 21:06:51 14° 267° (W) 21:08:38 145.665 - 145.685
AAUSAT CUBESAT 2 25 Sep 21:13:08 21:16:32 24° 264° (W) 21:19:57 437.432
Max Valier Satellite 25 Sep 21:17:09 21:19:35 17° 69° (ENE) 21:22:02 145.860
Oscar 11 25 Sep 21:24:06 21:28:21 52° 260° (W) 21:32:37 .
AO-73 25 Sep 21:28:21 21:32:14 33° 263° (W) 21:36:16 145.935
ZACube-1 25 Sep 21:33:05 21:36:43 26° 265° (W) 21:40:27 437.345
ISS 25 Sep 21:35:12 21:37:36 19° 334° (NNW) 21:40:01 437.550
UNISAT 6 25 Sep 21:43:49 21:44:54 11° 90° (E) 21:45:59 437.425
FO-29 25 Sep 21:44:56 21:50:18 42° 99° (E) 21:56:16 435.910
TIGRISAT 25 Sep 22:04:55 22:08:06 18° 93° (E) 22:11:15 435.000
EO-88 25 Sep 22:10:47 22:14:24 61° 75° (ENE) 22:18:02 145.990 - 145.960
nSIGHT-1 25 Sep 22:11:25 22:12:34 11° 342° (NNW) 22:13:42 .
DELFI C3 25 Sep 22:17:41 22:21:34 55° 260° (W) 22:25:26 145.870
STRAND 1 25 Sep 22:19:06 22:21:04 12° 299° (WNW) 22:23:02 437.568
SRMSAT 25 Sep 22:25:08 22:27:42 13° 178° (S) 22:30:18 437.500
SO-50 25 Sep 22:26:53 22:31:12 39° 54° (NE) 22:35:34 436.795
PCSat 25 Sep 22:33:23 22:36:44 16° 46° (NE) 22:40:06 145.827
YUBILEINY 25 Sep 22:41:06 22:48:27 29° 71° (ENE) 22:55:47 435.215
Max Valier Satellite 25 Sep 22:49:58 22:53:10 27° 263° (W) 22:56:25 145.860
LO-87 25 Sep 22:59:24 23:02:24 27° 72° (ENE) 23:05:25 145.935 - 145.965
UNISAT 6 25 Sep 23:17:19 23:22:00 68° 285° (WNW) 23:26:40 437.425
PRISM 25 Sep 23:27:55 23:31:59 80° 103° (ESE) 23:36:03 437.425
FO-29 25 Sep 23:30:39 23:35:13 26° 292° (WNW) 23:40:10 435.910
TIGRISAT 25 Sep 23:40:29 23:44:54 42° 288° (WNW) 23:49:19 435.000
SPROUT 25 Sep 23:53:19 23:56:24 20° 68° (ENE) 23:59:30 437.525
QB50P2 25 Sep 23:54:40 23:56:46 13° 92° (E) 23:58:50 145.880/145.840
ESTCUBE 1 25 Sep 23:55:12 23:59:45 87° 262° (W) 00:04:18 437.505/2401.250
SO-50 26 Sep 00:07:57 00:11:24 21° 249° (WSW) 00:14:51 436.795
AIST 2D 26 Sep 00:09:38 00:13:04 50° 100° (E) 00:16:28 435.315
VELOX 1 26 Sep 00:13:35 00:17:12 25° 69° (ENE) 00:20:49 145.980
SRMSAT 26 Sep 00:14:10 00:16:00 11° 188° (S) 00:17:49 437.500
PCSat 26 Sep 00:15:19 00:20:45 77° 245° (WSW) 00:26:08 145.827
NANOSAT C BR1 26 Sep 00:26:09 00:29:41 25° 96° (E) 00:33:11 145.865
LO-87 26 Sep 00:33:46 00:35:50 15° 266° (W) 00:37:54 145.935 - 145.965
YUBILEINY 26 Sep 00:37:11 00:45:39 57° 269° (W) 00:54:08 435.215
Tancredo 1 26 Sep 00:50:48 00:53:02 23° 32° (NNE) 00:55:17 437.200
DUCHIFAT 1 26 Sep 00:52:39 00:56:44 44° 99° (E) 01:00:48 145.980
UKube-1 26 Sep 01:02:45 01:05:06 15° 65° (ENE) 01:07:26 .
POLYITAN 1 26 Sep 01:10:21 01:14:41 85° 283° (WNW) 01:18:58 437.675
DX 1 26 Sep 01:13:40 01:17:25 30° 70° (ENE) 01:21:13 434.975-435.025
EO-79 26 Sep 01:13:53 01:18:10 78° 284° (WNW) 01:22:26 145.935-145.965
BUGSAT 1 26 Sep 01:17:54 01:21:10 21° 95° (E) 01:24:26 437.445
50 SAT 26 Sep 01:23:53 01:27:04 45° 74° (ENE) 01:30:14 437.505
nSIGHT-1 26 Sep 01:25:48 01:27:42 14° 23° (NNE) 01:29:35 .
SPROUT 26 Sep 01:28:19 01:32:03 31° 263° (W) 01:35:51 437.525
QB50P2 26 Sep 01:28:39 01:32:45 46° 287° (WNW) 01:36:51 145.880/145.840
Oscar 19 26 Sep 01:29:45 01:32:33 15° 92° (E) 01:35:20 437.125/150
Gurwin Techsat 1B 26 Sep 01:37:12 01:38:45 11° 90° (E) 01:40:18 435.225
VELOX 1 26 Sep 01:49:52 01:53:32 26° 264° (W) 01:57:12 145.980
NANOSAT C BR1 26 Sep 02:01:47 02:05:16 25° 291° (WNW) 02:08:44 145.865
O/OREOS (USA 219) 26 Sep 02:04:51 02:09:15 57° 107° (ESE) 02:13:42 437.305
ITUPSAT 1 26 Sep 02:21:13 02:23:28 13° 63° (ENE) 02:25:44 437.325
M-CUBED/EXP-1 PRIME 26 Sep 02:23:35 02:26:48 53° 289° (WNW) 02:29:57 437.505
Tancredo 1 26 Sep 02:25:16 02:27:23 21° 227° (SW) 02:29:30 437.200
ISS 26 Sep 02:27:12 02:30:15 34° 33° (NNE) 02:33:18 437.550
DUCHIFAT 1 26 Sep 02:29:38 02:32:00 15° 294° (WNW) 02:34:22 145.980
UKube-1 26 Sep 02:36:34 02:40:41 46° 260° (W) 02:44:50 .
DX 1 26 Sep 02:50:18 02:53:36 21° 265° (W) 02:56:54 434.975-435.025
BUGSAT 1 26 Sep 02:52:52 02:56:29 28° 290° (WNW) 03:00:07 437.445
BEESAT 26 Sep 02:53:52 02:57:57 29° 69° (ENE) 03:02:04 436.000
MOZHAYETS 4 26 Sep 03:00:59 03:05:05 32° 71° (ENE) 03:09:13
nSIGHT-1 26 Sep 03:01:10 03:04:26 85° 38° (NE) 03:07:41 .
Oscar 19 26 Sep 03:07:09 03:12:13 59° 287° (WNW) 03:17:15 437.125/150
Gurwin Techsat 1B 26 Sep 03:13:54 03:19:14 78° 285° (WNW) 03:24:31 435.225
BEESAT 3 26 Sep 03:26:40 03:29:19 17° 48° (NE) 03:31:57 437.485
AO-7 26 Sep 03:34:51 03:41:29 26° 96° (E) 03:48:04 .
CUBESAT XI-V 26 Sep 03:36:05 03:38:59 17° 66° (ENE) 03:41:53 437.345
O/OREOS (USA 219) 26 Sep 03:46:41 03:49:02 14° 304° (NW) 03:51:24 437.305
AO-85 26 Sep 03:53:09 03:55:33 14° 46° (NE) 03:58:02 145.980
ITUPSAT 1 26 Sep 03:56:00 04:00:43 63° 258° (WSW) 04:05:29 437.325
RS-15 26 Sep 04:02:30 04:12:46 34° 104° (ESE) 04:23:07 29.354- 29.394
ISS 26 Sep 04:03:59 04:06:35 22° 229° (SW) 04:09:10 437.550
ITAMSAT 1 26 Sep 04:18:05 04:22:58 40° 99° (E) 04:27:50 435.822/435.867
BEESAT 26 Sep 04:31:41 04:35:39 26° 264° (W) 04:39:39 436.000
KKS-1 26 Sep 04:37:54 04:41:28 25° 68° (ENE) 04:45:03 437.445
MOZHAYETS 4 26 Sep 04:38:39 04:42:15 22° 266° (W) 04:45:51
STARS 26 Sep 04:55:20 04:57:49 15° 65° (ENE) 05:00:20 437.465
BEESAT 3 26 Sep 05:03:20 05:07:04 41° 245° (WSW) 05:10:43 437.485
CUBESAT XI-V 26 Sep 05:11:24 05:15:56 48° 261° (W) 05:20:28 437.345
BEESAT 2 26 Sep 05:17:06 05:21:09 77° 58° (ENE) 05:25:07 435.950
AO-7 26 Sep 05:26:32 05:34:41 64° 292° (WNW) 05:42:49 .
AO-85 26 Sep 05:31:50 05:36:22 74° 241° (WSW) 05:41:14 145.980
ITAMSAT 1 26 Sep 05:58:06 06:02:09 24° 294° (WNW) 06:06:13 435.822/435.867
RS-15 26 Sep 06:12:08 06:24:21 70° 304° (NW) 06:36:41 29.354- 29.394
KKS-1 26 Sep 06:14:09 06:17:53 27° 263° (W) 06:21:39 437.445
STRAND 1 26 Sep 06:17:06 06:18:03 10° 60° (ENE) 06:19:00 437.568
LilacSat-2 26 Sep 06:19:09 06:21:34 16° 93° (E) 06:24:00 437.200
KAITUO 1B 26 Sep 06:26:47 06:28:35 13° 92° (E) 06:30:22 145.475/437.950
CUTE-I 26 Sep 06:27:31 06:31:20 20° 94° (E) 06:35:08 437.470
STARS 26 Sep 06:29:36 06:33:46 45° 260° (W) 06:37:57 437.465
DOVE 4 26 Sep 06:35:28 06:39:46 77° 284° (WNW) 06:44:19 437.250
XW-2D 26 Sep 07:02:15 07:06:00 57° 99° (E) 07:09:43 145.860 - 145.880
XW-2F 26 Sep 07:12:15 07:16:02 71° 101° (E) 07:19:45 145.980 - 146.000
XW-2B 26 Sep 07:14:41 07:18:30 81° 105° (ESE) 07:22:15 145.730 - 145.750
AO-7 26 Sep 07:22:27 07:25:49 13° 312° (NW) 07:29:11 .
NUDT-PHONESAT 26 Sep 07:25:38 07:29:23 79° 101° (E) 07:33:04 437.300
HO-68 26 Sep 07:31:16 07:37:32 31° 96° (E) 07:43:43 435.675
XW-2C 26 Sep 07:36:19 07:40:00 50° 286° (WNW) 07:43:39 145.795 - 145.815
CUTE 1.7 + AOD 2 26 Sep 07:41:12 07:44:52 28° 96° (E) 07:48:30 437.475
STRAND 1 26 Sep 07:51:21 07:56:26 89° 255° (WSW) 08:01:34 437.568
LilacSat-2 26 Sep 07:52:32 07:55:53 29° 288° (WNW) 07:59:11 437.200
KAITUO 1B 26 Sep 07:59:16 08:02:40 34° 287° (WNW) 08:06:03 145.475/437.950
FO-29 26 Sep 07:59:21 08:01:34 13° 62° (ENE) 08:03:46 435.910
CUTE-I 26 Sep 08:06:29 08:11:35 47° 289° (WNW) 08:16:41 437.470
XW-2A 26 Sep 08:26:41 08:29:52 36° 98° (E) 08:33:02 145.665 - 145.685
RS-15 26 Sep 08:30:07 08:39:40 25° 332° (NNW) 08:49:11 29.354- 29.394
CUBEBUG 2 26 Sep 08:40:44 08:45:30 80° 102° (ESE) 08:50:15 437.445
UWE-3 26 Sep 08:41:26 08:45:57 46° 98° (E) 08:50:25 435.000/436.395/437.385
SEEDS 26 Sep 08:42:29 08:46:41 86° 282° (WNW) 08:50:49 437.485
AAUSAT CUBESAT 2 26 Sep 08:55:59 09:00:02 56° 100° (E) 09:04:03 437.432
TIGRISAT 26 Sep 09:03:18 09:04:58 12° 63° (ENE) 09:06:39 435.000
Oscar 11 26 Sep 09:13:16 09:17:09 31° 97° (E) 09:20:58 .
CUTE 1.7 + AOD 2 26 Sep 09:17:19 09:20:30 21° 291° (WNW) 09:23:41 437.475
AO-73 26 Sep 09:17:26 09:21:56 53° 100° (E) 09:26:20 145.935
HO-68 26 Sep 09:18:34 09:25:21 47° 293° (WNW) 09:32:08 435.675
ZACube-1 26 Sep 09:22:07 09:26:42 69° 101° (E) 09:31:13 437.345
